Dewpoint
46 48 50 39 34 38 34 22 24 25 27 30 32 30 35 42 40 41 46 54 56 59 67 69 70 72 71 71 71 72 72 72 72 72 72 72 72 72 72 71 70 70 69 69 68 69 69 69 68
41 33 29 31 27 36 35 21 25 28 32 34 29 27 39 42 46 47 47 52 55 60 63 69 70 71 71 71 72 72 72 72 72 72 72 72 72 72 71 71 69 69 69 68 68 69 69 69 69
44 35 22 24 18 33 28 19 24 29 30 30 31 36 38 44 46 47 50 52 54 56 60 69 70 70 72 71 72 72 72 71 72 72 72 71 71 71 71 71 70 70 69 68 68 68 69 69 68
29 17 18 11 21 23 18 16 20 25 28 32 38 45 46 49 48 49 51 52 53 55 65 70 70 70 71 72 72 72 71 71 71 71 72 71 71 71 71 70 71 70 69 68 68 69 69 68 67
14 9 9 8 15 16 15 14 16 20 29 32 44 45 46 47 50 51 52 52 53 61 67 69 70 70 71 72 72 72 71 71 71 71 71 71 71 71 70 70 70 70 69 69 69 69 67 67 66
8 7 3 4 10 15 16 13 14 14 27 36 45 47 47 46 49 51 52 53 55 64 64 69 71 71 72 72 71 71 70 70 70 70 70 71 71 70 70 70 70 70 69 69 68 67 66 65 64
4 5 2 1 10 14 13 13 10 31 26 26 39 41 49 45 48 52 54 56 57 63 64 67 69 71 71 71 70 70 70 70 70 70 70 70 70 70 69 70 70 69 69 69 67 66 65 65 64
4 3 1 2 3 11 11 13 10 23 18 28 30 34 45 52 47 51 55 58 61 64 64 65 67 69 70 70 70 69 70 70 69 69 69 69 69 69 69 69 69 69 69 68 66 66 66 66 65
9 -0 -1 4 10 10 8 10 10 17 16 18 24 40 48 53 48 49 54 58 61 64 64 65 65 66 68 69 69 69 69 69 69 69 69 68 66 68 68 67 68 68 68 67 67 66 67 66 65
6 1 11 17 16 11 8 10 10 14 14 16 17 23 45 52 52 48 50 55 59 61 64 65 65 65 66 63 68 68 68 68 68 67 68 67 63 64 62 64 67 67 67 66 66 66 66 65 64
7 6 15 13 12 7 8 11 12 14 13 14 16 16 19 40 50 52 51 50 54 59 62 65 66 65 65 62 67 65 66 66 66 66 66 65 61 63 61 66 66 67 66 65 65 65 65 63 62
12 18 16 11 4 4 6 13 9 9 10 11 14 15 15 16 23 45 49 51 51 56 60 63 64 66 66 63 65 63 63 64 65 65 66 64 63 63 60 63 65 64 62 62 61 62 63 62 62
11 13 8 8 4 1 3 12 10 10 9 10 12 14 15 20 24 29 36 50 53 52 58 61 63 66 66 66 63 63 62 63 62 63 65 65 63 62 61 60 63 62 60 60 60 60 61 62 61
13 8 2 3 3 1 5 7 9 11 10 10 12 15 30 34 37 38 39 39 47 53 56 60 60 65 66 66 65 64 63 62 61 61 63 65 63 63 62 61 61 59 58 59 57 58 58 60 60
14 3 3 3 4 1 8 9 10 14 13 13 18 29 34 36 38 40 42 42 46 50 53 60 60 64 65 66 65 65 62 62 61 60 62 65 64 64 63 62 60 60 59 58 58 56 59 57 58
4 -0 1 5 3 -0 6 15 20 20 21 24 29 32 34 37 38 40 43 44 47 49 51 54 57 61 65 65 66 65 64 63 61 62 60 63 65 63 64 62 61 60 59 60 59 59 57 58 57
-0 -6 -0 4 3 -3 11 20 24 25 26 28 30 32 33 35 37 39 39 43 45 48 50 52 55 55 57 64 64 65 65 64 62 62 62 62 62 64 64 63 61 62 59 59 59 58 59 57 57
-7 -7 -0 3 3 6 19 22 25 27 28 29 30 31 32 33 35 38 39 41 43 46 48 50 52 54 53 54 58 64 63 63 63 62 61 61 63 62 63 63 64 62 61 59 58 58 58 58 56
-4 -9 3 5 13 19 21 23 25 27 28 28 29 30 32 33 34 36 38 40 40 42 42 44 48 51 52 52 54 58 57 61 61 62 61 62 62 63 63 62 63 64 61 60 59 58 58 57 57
-5 0 6 14 18 21 23 24 26 27 28 29 29 31 32 33 34 35 37 39 40 41 40 40 42 44 46 50 51 53 55 57 61 61 62 61 61 63 64 63 62 62 62 61 60 59 58 58 57
-3 4 7 9 13 21 22 22 24 26 28 30 31 32 33 34 34 35 36 37 39 41 41 41 41 41 43 43 44 49 51 52 53 53 55 60 62 61 62 64 64 63 62 61 60 60 59 58 57
5 9 8 8 14 16 19 17 21 24 26 28 31 32 34 35 35 35 35 36 37 38 38 39 41 42 42 44 42 43 44 44 47 49 50 51 53 60 61 62 64 64 63 62 61 60 60 59 58
11 11 9 8 13 11 16 9 19 21 23 26 30 32 33 33 32 32 33 34 36 39 40 40 37 38 39 41 43 42 42 42 42 43 45 46 47 51 51 54 61 64 64 64 62 61 61 60 59
13 13 12 10 9 9 5 6 18 19 22 25 27 30 29 29 27 28 29 31 32 37 40 39 38 38 38 38 40 41 40 42 42 43 42 44 43 43 47 48 51 53 63 64 64 62 62 61 60
13 13 8 8 8 7 7 6 19 23 24 26 26 27 27 27 27 27 27 28 31 34 36 35 34 35 38 39 38 38 40 39 41 42 42 42 43 43 42 44 48 50 53 58 64 64 63 62 60
13 12 11 4 3 10 10 9 21 24 26 26 25 25 25 26 27 26 27 28 30 32 34 35 34 33 35 37 38 39 39 39 39 41 42 41 43 43 44 43 45 46 51 54 56 64 64 64 63
12 14 18 20 15 10 10 23 23 25 25 24 24 25 25 26 27 26 26 28 30 31 33 35 33 32 34 35 37 38 39 39 39 40 40 40 41 39 42 44 43 44 47 50 53 55 61 64 64
20 19 15 17 10 -1 7 20 18 22 24 25 25 25 25 26 27 26 26 28 29 30 31 34 33 31 33 34 35 35 38 39 40 40 40 40 39 40 41 41 42 42 44 48 51 49 50 52 62
21 19 22 18 19 7 2 12 22 21 23 24 24 25 25 26 26 26 26 27 28 30 30 29 30 31 32 33 33 35 36 37 39 39 40 40 40 40 40 40 40 41 42 44 48 47 47 46 48
11 12 16 17 14 19 17 21 25 24 24 24 23 25 26 25 26 27 27 27 28 28 28 27 29 29 29 29 31 33 35 34 35 36 38 39 40 40 41 40 40 40 40 41 43 44 44 43 43
Wind_Speed
20 13 14 13 5 13 23 2 20 23 19 17 10 18 29 24 15 12 19 30 28 24 19 18 18 16 17 18 18 18 14 14 13 13 13 12 13 12 14 13 15 12 13 13 14 14 14 13 13
13 17 13 7 6 16 17 15 19 16 11 8 15 22 29 24 22 18 16 26 25 23 18 17 17 17 16 17 18 19 16 14 13 12 12 12 11 12 11 12 15 13 12 12 13 13 13 13 12
15 15 9 9 11 19 10 13 12 12 11 11 17 19 11 12 14 10 22 25 24 21 20 18 17 17 16 17 16 18 18 15 13 12 11 11 11 10 10 10 12 12 11 11 11 11 11 11 11
9 9 9 12 9 5 8 12 15 12 15 15 20 15 11 13 7 21 23 24 22 19 22 21 18 16 16 17 17 15 17 16 14 12 11 10 10 10 9 9 10 11 10 11 11 10 10 10 9
12 8 14 19 11 17 13 14 11 16 19 13 30 19 17 16 19 21 20 20 20 21 20 19 19 16 14 15 16 16 14 15 15 13 11 10 9 8 9 8 9 10 10 10 9 8 9 8 6
10 12 16 19 12 24 15 15 16 20 18 18 25 24 12 17 17 18 19 18 21 22 19 18 16 16 15 13 14 14 15 13 13 13 12 10 9 9 7 7 7 8 9 11 9 9 8 7 5
14 15 21 24 6 21 12 16 14 22 25 21 26 23 18 16 12 16 17 16 16 23 21 16 16 15 14 13 12 12 12 13 12 11 11 10 9 9 8 7 7 7 8 8 9 9 8 7 5
15 17 21 24 4 18 9 17 11 24 23 23 19 10 12 9 11 13 17 15 15 19 19 15 14 15 15 13 12 11 11 10 10 10 10 8 8 8 8 8 8 8 8 9 9 9 8 6 5
12 14 17 14 18 14 10 17 6 24 24 21 21 17 13 10 11 12 15 15 14 15 16 14 14 13 13 14 13 12 9 9 9 9 9 9 9 9 10 11 14 10 9 9 9 11 8 7 8
9 14 6 14 16 11 13 21 11 19 20 19 18 18 14 11 8 11 13 14 14 13 16 14 13 13 13 13 15 13 13 10 9 10 11 10 12 13 13 14 13 12 11 11 11 11 10 8 10
9 7 12 10 8 9 16 20 18 12 15 13 13 14 14 9 10 6 6 15 18 18 15 18 13 14 14 12 14 11 11 12 12 13 12 12 12 12 13 11 11 10 10 9 11 11 10 12 14
4 2 11 9 11 7 12 18 16 16 10 7 9 9 11 11 16 11 1 6 17 21 20 17 19 16 13 12 16 14 12 13 13 15 15 13 12 11 13 12 14 13 12 14 14 13 14 16 16
11 11 9 6 8 7 4 17 15 13 6 8 9 14 11 19 20 22 21 13 13 16 20 19 17 17 15 14 10 15 15 15 13 15 16 16 14 13 13 12 14 15 14 15 14 16 16 16 17
12 13 8 4 8 3 14 14 16 11 7 11 16 17 27 28 28 26 27 28 30 24 15 19 15 17 14 14 14 8 13 12 15 14 14 18 15 14 13 12 12 15 17 16 17 15 17 16 17
8 15 9 4 7 2 23 15 12 8 8 15 18 26 25 26 25 24 24 25 26 28 23 12 14 14 15 12 12 12 10 11 12 13 14 17 17 16 12 14 16 13 14 18 18 19 15 17 15
12 13 9 5 8 3 3 14 12 9 16 19 23 23 24 24 26 27 26 25 25 27 30 28 24 9 12 11 9 12 12 10 12 9 15 15 17 19 15 13 14 14 13 12 14 12 16 14 16
18 17 15 8 12 9 8 13 13 15 17 20 22 22 22 22 24 25 26 26 26 26 29 30 31 29 26 7 11 13 13 12 11 13 12 15 18 17 18 15 15 14 15 16 13 16 14 16 16
19 21 21 12 14 13 23 18 16 16 17 20 20 19 20 21 23 23 26 24 25 27 30 29 27 30 26 20 20 10 13 14 15 14 14 15 15 19 18 17 17 18 15 16 16 16 16 16 16
25 21 19 14 20 24 22 20 17 18 17 18 17 18 19 20 21 24 24 23 24 26 29 31 32 29 25 23 22 17 18 20 13 14 16 17 16 18 20 20 20 19 19 17 18 17 18 18 17
10 21 20 13 21 23 22 21 17 16 15 15 16 15 16 18 19 21 22 22 24 25 27 28 28 29 26 20 18 9 13 12 19 15 14 19 20 14 16 20 20 20 19 20 18 19 18 17 19
11 21 21 23 14 23 24 19 17 16 15 15 14 15 15 16 17 18 21 22 21 23 24 22 24 23 24 25 21 19 15 20 22 27 25 30 18 20 19 18 20 21 19 21 22 20 22 20 18
13 6 19 25 24 25 27 12 17 18 15 13 13 12 13 13 16 17 18 19 20 20 20 21 21 21 21 22 23 23 18 17 15 19 20 23 28 27 22 24 21 21 22 23 21 21 23 21 22
8 6 11 20 21 13 23 7 17 18 16 13 14 12 13 12 15 15 16 18 19 18 17 17 18 19 20 21 20 20 20 16 14 18 22 25 27 29 26 34 25 24 23 23 26 22 22 24 25
15 11 8 11 13 13 16 19 18 20 17 13 11 14 12 13 13 15 15 16 17 17 17 17 18 17 18 18 18 19 21 21 20 21 23 24 23 24 27 32 28 28 23 27 25 28 24 23 26
14 20 10 10 11 12 15 10 15 17 14 14 12 14 13 12 11 13 14 15 15 17 17 17 18 19 19 17 17 18 17 17 19 20 19 20 20 22 25 26 27 26 29 30 28 26 29 27 28
19 22 6 11 17 13 8 9 14 16 15 13 12 12 11 10 10 12 14 13 13 14 14 13 15 16 18 18 17 16 16 15 14 15 18 17 16 17 22 24 24 26 27 29 29 28 28 27 30
16 10 4 3 2 11 14 11 12 16 15 12 10 10 8 7 8 9 11 12 12 13 14 13 14 15 14 15 15 14 15 15 16 16 14 16 17 17 20 21 25 27 27 26 29 23 29 31 31
6 4 7 5 6 7 16 18 10 23 18 15 12 8 7 5 5 7 8 10 11 12 12 12 13 14 14 14 11 14 13 15 14 15 17 18 17 19 18 19 20 23 24 25 25 25 27 32 23
7 8 6 4 3 9 9 5 18 25 21 17 12 8 4 3 5 7 9 10 11 12 14 14 14 14 14 13 13 13 14 13 13 15 15 16 19 20 21 20 20 21 22 19 22 23 23 27 25
12 14 14 7 8 6 5 8 14 18 16 11 8 7 4 2 1 5 7 9 11 12 14 14 14 15 14 15 14 12 13 16 17 18 17 17 17 20 18 21 20 22 24 23 19 16 18 22 26
Wind_Direction
305 251 235 264 254 30 319 10 67 68 67 61 58 68 68 47 37 91 122 105 113 119 125 120 124 129 131 131 132 130 128 120 116 109 106 101 100 100 106 114 116 105 111 114 115 112 111 106 100
301 303 267 274 232 97 263 36 78 71 82 126 56 65 65 66 84 95 107 115 117 124 133 127 129 132 133 133 135 133 132 127 122 115 112 110 109 109 111 114 112 116 116 118 121 119 118 110 102
275 267 286 225 231 157 261 31 85 93 63 21 102 67 52 54 72 93 117 118 122 130 130 126 132 140 136 138 139 137 135 134 129 122 125 125 123 118 119 118 115 122 123 124 123 119 111 107 109
275 251 247 255 95 169 106 53 28 63 52 31 71 76 74 24 80 119 122 121 127 137 117 131 134 142 140 140 139 138 140 141 140 135 133 133 132 130 130 131 128 130 131 132 131 132 126 120 125
249 271 267 270 212 111 58 47 33 66 62 23 86 84 74 67 102 118 127 126 127 113 121 131 134 140 140 140 142 143 146 147 147 146 144 142 139 137 140 143 141 139 135 129 131 132 127 125 126
272 251 269 261 229 106 71 44 39 54 58 27 87 80 83 100 113 126 129 129 124 117 127 134 133 134 135 139 145 150 152 153 153 153 154 153 152 150 151 151 150 149 140 140 141 133 131 137 147
254 277 265 270 108 79 75 63 36 76 53 24 77 80 94 94 118 126 122 126 129 126 127 138 142 138 134 141 151 155 158 158 159 161 161 164 164 163 161 161 161 158 152 154 153 151 154 158 162
257 276 278 277 291 84 90 82 15 78 56 45 44 58 68 107 128 127 124 121 113 112 127 144 147 152 151 149 154 158 163 165 165 167 168 169 166 171 171 169 171 172 173 174 172 171 174 185 207
285 268 252 321 86 91 52 77 43 86 68 57 45 79 85 116 134 138 135 137 131 131 138 150 153 163 162 157 158 155 162 170 170 172 178 172 189 181 180 201 177 181 187 193 193 190 197 217 240
220 230 57 42 65 85 72 59 10 89 63 52 50 37 102 112 140 154 162 161 157 163 152 158 164 166 170 175 154 170 170 179 192 190 179 210 220 179 199 192 184 186 195 200 202 207 221 241 254
236 279 90 57 20 39 90 74 36 69 59 52 51 48 34 66 138 177 216 178 175 168 170 161 176 171 180 204 153 182 181 185 191 202 188 214 218 204 218 156 175 187 202 211 207 213 225 232 237
221 28 62 81 42 48 77 98 68 56 57 56 71 50 46 56 22 37 87 211 174 165 166 170 171 174 197 220 162 181 200 192 190 197 196 204 240 212 202 182 187 192 193 209 202 214 218 231 243
241 113 104 109 89 52 176 99 85 54 56 82 83 71 54 40 55 36 21 8 355 161 161 168 172 173 181 239 204 176 199 187 206 197 194 193 226 235 203 226 190 184 203 201 221 211 217 223 234
142 129 106 88 102 77 99 60 55 48 64 77 76 75 53 48 40 31 16 24 16 4 150 160 171 168 183 197 252 211 194 201 200 203 202 201 213 232 205 219 251 189 202 195 212 228 222 218 221
140 133 105 63 167 115 114 74 64 65 89 81 70 67 57 49 45 38 23 23 24 14 3 155 162 167 182 198 221 258 222 223 202 216 211 197 209 243 224 212 221 238 204 214 202 222 235 227 224
183 177 181 131 167 171 294 97 71 54 84 81 70 65 63 57 53 44 33 30 30 26 23 20 20 170 177 200 229 219 254 249 224 231 221 210 203 219 257 242 225 226 235 237 221 221 227 236 239
197 200 183 128 186 162 164 110 82 74 88 84 82 75 67 63 57 51 44 39 34 33 31 31 29 24 14 211 223 264 237 247 240 228 240 221 212 216 219 249 239 244 223 234 228 220 234 236 237
196 226 172 133 169 142 115 110 104 99 91 94 87 79 73 66 61 56 51 42 36 42 39 35 32 26 18 13 5 271 255 234 233 239 245 240 214 214 220 235 254 232 243 228 235 231 215 231 240
289 200 112 135 128 123 123 119 108 105 99 90 83 81 79 71 66 64 56 48 40 46 42 38 37 28 24 19 7 355 359 328 280 228 233 261 246 209 213 223 233 250 237 237 229 234 227 234 227
190 133 133 125 134 130 129 121 116 103 93 90 91 77 67 70 65 66 64 56 46 42 48 39 36 33 28 28 14 2 349 342 343 323 284 230 239 262 219 219 228 234 246 243 236 234 231 231 229
168 147 156 170 178 138 132 130 129 125 118 111 93 82 76 68 64 61 60 57 45 44 29 49 40 33 30 16 20 21 19 8 4 352 345 338 233 234 244 240 224 230 241 242 239 236 231 232 231
140 131 179 165 174 166 177 142 147 142 127 114 101 89 78 64 68 58 56 53 53 45 39 32 41 37 29 27 22 30 40 22 2 356 341 348 358 343 236 241 235 227 228 242 242 235 234 232 236
165 137 153 175 194 160 202 222 158 156 142 125 106 85 76 71 66 61 64 53 55 42 32 35 40 38 34 27 30 24 17 11 12 10 5 8 357 358 352 359 314 234 233 234 242 244 233 231 234
140 149 172 193 215 231 194 207 176 184 149 126 114 99 91 79 70 66 56 64 53 50 33 30 23 36 32 31 26 25 16 3 2 4 6 1 4 358 351 348 348 333 289 230 234 237 240 232 233
179 166 149 189 188 230 160 179 116 114 120 127 121 113 101 86 69 65 54 46 50 55 39 24 21 25 24 22 25 20 17 13 0 358 356 353 351 356 346 348 347 338 335 331 245 233 237 240 235
204 201 206 199 202 161 161 180 155 128 124 124 123 114 108 91 77 54 61 49 47 47 45 35 21 19 20 12 16 19 14 6 3 356 348 343 343 344 336 337 341 340 345 343 337 267 238 236 240
180 219 292 257 254 158 159 91 108 139 142 144 137 126 111 88 70 58 53 47 39 30 45 32 17 14 23 8 13 14 4 5 356 349 350 339 333 340 343 328 338 339 342 349 332 336 323 251 243
253 185 190 235 203 206 176 171 181 175 167 162 159 161 132 91 68 60 50 52 39 30 28 25 21 11 17 4 8 3 9 356 352 346 345 337 333 330 328 341 335 323 345 342 339 349 346 353 286
186 201 230 252 293 226 196 145 142 166 166 165 165 152 123 88 35 36 38 42 35 29 21 16 15 9 11 359 1 3 356 351 350 340 336 332 331 335 330 336 328 333 330 332 333 341 345 354 342
242 208 201 205 192 234 351 110 124 144 137 148 151 155 166 120 68 36 44 34 22 19 14 8 11 9 2 352 354 358 1 351 346 340 334 334 328 329 330 327 334 324 324 331 329 325 331 353 339